RAM667T LFPO-GMTT

Flight info

Callsign RAM667T
Flight time 2h 15m
Altitude 37000
Route AGOPA DCT ARKIP DCT ARMAL DCT ARTAX DCT BEBIX DCT LMG DCT UVELI DCT OSMOB DCT VAVIX DCT NETUK N857 SVL N10 LINTO DCT NOLRO
Aircraft B738/M-SDE2E3FGHIRWXY/LB1

Departure

Time 2026-04-25 18:41
Airport Paris-Orly Airport (LFPO)

Arrival

Time 2026-04-25 20:56
Airport Tangier Ibn Battuta Airport (GMTT)
Time Latitude Longitude Altitude Speed Heading
2026-04-25 18:04 48.73387 2.37905 288 ft 0 kts 288°
2026-04-25 18:25 48.73386 2.37910 285 ft 3 kts 288°
2026-04-25 18:26 48.73378 2.37949 289 ft 4 kts 283°
2026-04-25 18:26 48.73373 2.37989 288 ft 4 kts 276°
2026-04-25 18:26 48.73373 2.38028 290 ft 4 kts 255°
2026-04-25 18:26 48.73383 2.38055 290 ft 2 kts 199°
2026-04-25 18:27 48.73385 2.38056 290 ft 0 kts 198°
2026-04-25 18:33 48.73384 2.38056 290 ft 0 kts 198°
2026-04-25 18:33 48.73365 2.38046 289 ft 6 kts 198°
2026-04-25 18:34 48.73294 2.38012 287 ft 15 kts 198°
2026-04-25 18:34 48.73206 2.37966 287 ft 12 kts 199°
2026-04-25 18:34 48.73125 2.37924 286 ft 12 kts 198°
2026-04-25 18:34 48.73046 2.37885 284 ft 12 kts 198°
2026-04-25 18:35 48.72968 2.37847 284 ft 12 kts 198°
2026-04-25 18:35 48.72893 2.37809 284 ft 11 kts 198°
2026-04-25 18:35 48.72820 2.37773 284 ft 11 kts 198°
2026-04-25 18:35 48.72749 2.37737 284 ft 11 kts 198°
2026-04-25 18:36 48.72689 2.37671 283 ft 11 kts 248°
2026-04-25 18:36 48.72667 2.37556 286 ft 12 kts 254°
2026-04-25 18:36 48.72639 2.37407 284 ft 18 kts 254°
2026-04-25 18:36 48.72603 2.37209 281 ft 20 kts 255°
2026-04-25 18:37 48.72566 2.37007 296 ft 20 kts 254°
2026-04-25 18:37 48.72530 2.36811 298 ft 19 kts 254°
2026-04-25 18:37 48.72495 2.36622 296 ft 18 kts 254°
2026-04-25 18:37 48.72461 2.36438 296 ft 18 kts 255°
2026-04-25 18:38 48.72429 2.36262 298 ft 17 kts 255°
2026-04-25 18:38 48.72397 2.36092 297 ft 16 kts 254°
2026-04-25 18:38 48.72368 2.35928 296 ft 16 kts 255°
2026-04-25 18:38 48.72338 2.35770 296 ft 15 kts 255°
2026-04-25 18:39 48.72301 2.35626 296 ft 15 kts 222°
2026-04-25 18:39 48.72188 2.35616 295 ft 19 kts 166°
2026-04-25 18:39 48.72084 2.35670 296 ft 8 kts 153°
2026-04-25 18:39 48.72073 2.35680 297 ft 2 kts 147°
2026-04-25 18:40 48.72035 2.35738 294 ft 11 kts 125°
2026-04-25 18:40 48.71983 2.35877 295 ft 18 kts 115°
2026-04-25 18:40 48.71995 2.36153 296 ft 53 kts 74°
2026-04-25 18:40 48.72184 2.37176 292 ft 145 kts 74°
2026-04-25 18:41 48.72459 2.38905 772 ft 186 kts 74°
2026-04-25 18:41 48.72787 2.40773 2253 ft 178 kts 72°
2026-04-25 18:41 48.73156 2.42683 3044 ft 201 kts 71°
2026-04-25 18:41 48.73580 2.44862 3343 ft 229 kts 72°
2026-04-25 18:42 48.74027 2.47234 3975 ft 238 kts 75°
2026-04-25 18:42 48.74129 2.48032 4189 ft 242 kts 81°
2026-04-25 18:42 48.74246 2.52390 5534 ft 248 kts 86°
2026-04-25 18:42 48.74260 2.55017 6396 ft 251 kts 97°
2026-04-25 18:43 48.73501 2.57387 7147 ft 258 kts 134°
2026-04-25 18:43 48.71955 2.58781 7845 ft 267 kts 163°
2026-04-25 18:43 48.70030 2.59039 8312 ft 289 kts 188°
2026-04-25 18:43 48.68095 2.58192 9187 ft 293 kts 210°
2026-04-25 18:44 48.66403 2.56487 10202 ft 294 kts 218°
2026-04-25 18:44 48.64719 2.54607 10776 ft 312 kts 218°
2026-04-25 18:44 48.62888 2.52571 10989 ft 341 kts 218°
2026-04-25 18:44 48.60903 2.50413 11393 ft 359 kts 217°
2026-04-25 18:45 48.58846 2.48227 12180 ft 364 kts 217°
2026-04-25 18:45 48.56791 2.46073 12827 ft 363 kts 216°
2026-04-25 18:45 48.54719 2.43911 13124 ft 364 kts 216°
2026-04-25 18:45 48.52656 2.41643 13293 ft 370 kts 221°
2026-04-25 18:46 48.50855 2.38858 14137 ft 369 kts 231°
2026-04-25 18:46 48.49223 2.35878 15050 ft 369 kts 232°
2026-04-25 18:46 48.47589 2.32881 15825 ft 372 kts 232°
2026-04-25 18:46 48.45932 2.29855 16548 ft 377 kts 232°
2026-04-25 18:47 48.44250 2.26801 17287 ft 380 kts 231°
2026-04-25 18:47 48.42548 2.23727 18025 ft 384 kts 231°
2026-04-25 18:47 48.40828 2.20632 18702 ft 387 kts 231°
2026-04-25 18:47 48.39089 2.17510 19309 ft 391 kts 231°
2026-04-25 18:48 48.37338 2.14370 19960 ft 394 kts 231°
2026-04-25 18:48 48.35572 2.11206 20627 ft 395 kts 231°
2026-04-25 18:48 48.33794 2.08027 21236 ft 399 kts 231°
2026-04-25 18:48 48.31999 2.04837 21813 ft 402 kts 229°
2026-04-25 18:49 48.29821 2.02163 22353 ft 410 kts 210°
2026-04-25 18:49 48.27141 2.00650 22953 ft 416 kts 194°
2026-04-25 18:49 48.24245 2.00318 23533 ft 422 kts 181°
2026-04-25 18:49 48.21293 2.00445 24004 ft 426 kts 180°
2026-04-25 18:50 48.18320 2.00613 24418 ft 429 kts 180°
2026-04-25 18:50 48.15325 2.00759 24869 ft 432 kts 180°
2026-04-25 18:50 48.12316 2.00867 25329 ft 434 kts 181°
2026-04-25 18:50 48.09288 2.00953 25783 ft 436 kts 181°
2026-04-25 18:51 48.06242 2.01057 26200 ft 439 kts 180°
2026-04-25 18:51 48.05254 2.01105 26336 ft 440 kts 180°
2026-04-25 18:51 48.00106 2.01412 27021 ft 444 kts 180°
2026-04-25 18:51 47.97002 2.01611 27118 ft 447 kts 180°
2026-04-25 18:52 47.93897 2.01807 27126 ft 446 kts 180°
2026-04-25 18:52 47.90802 2.01997 27135 ft 445 kts 180°
2026-04-25 18:52 47.87708 2.02182 27137 ft 445 kts 180°
2026-04-25 18:52 47.84611 2.02363 27134 ft 446 kts 180°
2026-04-25 18:53 47.81515 2.02543 27133 ft 446 kts 180°
2026-04-25 18:53 47.78405 2.02724 27123 ft 446 kts 180°
2026-04-25 18:53 47.75334 2.02901 27207 ft 450 kts 180°
2026-04-25 18:53 47.72199 2.03083 27613 ft 452 kts 180°
2026-04-25 18:54 47.65924 2.03448 28570 ft 452 kts 180°
2026-04-25 18:54 47.62777 2.03630 28906 ft 455 kts 180°
2026-04-25 18:54 47.59600 2.03814 29226 ft 458 kts 180°
2026-04-25 18:55 47.56417 2.04000 29569 ft 460 kts 180°
2026-04-25 18:55 47.53219 2.04187 30032 ft 459 kts 180°
2026-04-25 18:55 47.50034 2.04374 30540 ft 456 kts 180°
2026-04-25 18:55 47.46880 2.04559 31038 ft 452 kts 180°
2026-04-25 18:56 47.43742 2.04742 31489 ft 450 kts 180°
2026-04-25 18:56 47.40612 2.04923 31889 ft 450 kts 180°
2026-04-25 18:56 47.37493 2.05104 32303 ft 448 kts 180°
2026-04-25 18:56 47.34386 2.05220 32779 ft 444 kts 184°
2026-04-25 18:57 47.31339 2.04763 33293 ft 437 kts 192°
2026-04-25 18:57 47.28352 2.03991 33731 ft 435 kts 192°
2026-04-25 18:57 47.25377 2.03193 34093 ft 435 kts 193°
2026-04-25 18:57 47.24372 2.02923 34206 ft 435 kts 192°
2026-04-25 18:58 47.19422 2.01609 34669 ft 435 kts 192°
2026-04-25 18:58 47.13446 2.00069 35229 ft 435 kts 192°
2026-04-25 18:58 47.10461 1.99312 35536 ft 435 kts 192°
2026-04-25 18:59 47.04482 1.97806 36003 ft 437 kts 192°
2026-04-25 18:59 46.98476 1.96298 36537 ft 438 kts 192°
2026-04-25 19:00 46.92467 1.94793 37064 ft 438 kts 192°
2026-04-25 19:00 46.89460 1.94040 37116 ft 442 kts 192°
2026-04-25 19:01 46.80346 1.91764 37120 ft 440 kts 192°
2026-04-25 19:01 46.74386 1.90281 37127 ft 436 kts 192°
2026-04-25 19:02 46.65429 1.88056 37131 ft 435 kts 192°
2026-04-25 19:03 46.58452 1.86328 37135 ft 435 kts 192°
2026-04-25 19:03 46.50500 1.84364 37140 ft 436 kts 192°
2026-04-25 19:04 46.41526 1.82155 37149 ft 437 kts 192°
2026-04-25 19:05 46.30538 1.79458 37146 ft 437 kts 193°
2026-04-25 19:06 46.24878 1.76531 37152 ft 431 kts 211°
2026-04-25 19:06 46.20100 1.71390 37155 ft 429 kts 223°
2026-04-25 19:06 46.17863 1.68549 37151 ft 429 kts 223°
2026-04-25 19:07 46.11123 1.60048 37140 ft 429 kts 223°
2026-04-25 19:08 46.04341 1.51644 37148 ft 429 kts 222°
2026-04-25 19:09 45.96148 1.41318 37134 ft 426 kts 229°
2026-04-25 19:09 45.92360 1.33103 37165 ft 422 kts 244°
2026-04-25 19:10 45.91055 1.29326 37152 ft 422 kts 244°
2026-04-25 19:10 45.88433 1.21785 37159 ft 422 kts 244°
2026-04-25 19:11 45.85774 1.14284 37153 ft 422 kts 244°
2026-04-25 19:11 45.83092 1.06787 37155 ft 423 kts 242°
2026-04-25 19:12 45.79552 1.00063 37159 ft 426 kts 225°
2026-04-25 19:12 45.75014 0.94554 37147 ft 428 kts 221°
2026-04-25 19:13 45.70403 0.89143 37161 ft 429 kts 221°
2026-04-25 19:13 45.65797 0.83698 37161 ft 430 kts 221°
2026-04-25 19:14 45.61203 0.78237 37165 ft 430 kts 221°
2026-04-25 19:14 45.56587 0.72751 37155 ft 432 kts 222°
2026-04-25 19:15 45.51964 0.67267 37165 ft 433 kts 222°
2026-04-25 19:15 45.47328 0.61781 37166 ft 434 kts 222°
2026-04-25 19:16 45.42711 0.56330 37168 ft 434 kts 221°
2026-04-25 19:16 45.38055 0.50845 37153 ft 435 kts 221°
2026-04-25 19:17 45.33396 0.45369 37166 ft 434 kts 221°
2026-04-25 19:17 45.28740 0.39909 37171 ft 434 kts 221°
2026-04-25 19:18 45.24084 0.34459 37168 ft 434 kts 221°
2026-04-25 19:18 45.19421 0.29014 37174 ft 434 kts 221°
2026-04-25 19:19 45.14750 0.23571 37170 ft 434 kts 221°
2026-04-25 19:19 45.10080 0.18140 37174 ft 435 kts 221°
2026-04-25 19:20 45.05402 0.12711 37174 ft 435 kts 221°
2026-04-25 19:20 45.00719 0.07292 37168 ft 435 kts 221°
2026-04-25 19:21 44.96031 0.01879 37167 ft 435 kts 221°
2026-04-25 19:21 44.89010 -0.06208 37170 ft 434 kts 221°
2026-04-25 19:22 44.84323 -0.11596 37170 ft 435 kts 221°
2026-04-25 19:23 44.77292 -0.19655 37172 ft 435 kts 221°
2026-04-25 19:23 44.70250 -0.27702 37173 ft 435 kts 221°
2026-04-25 19:24 44.65550 -0.33058 37181 ft 435 kts 221°
2026-04-25 19:25 44.55605 -0.42828 37175 ft 436 kts 216°
2026-04-25 19:25 44.50583 -0.47603 37174 ft 436 kts 216°
2026-04-25 19:26 44.45574 -0.52402 37178 ft 436 kts 217°
2026-04-25 19:26 44.40570 -0.57200 37171 ft 436 kts 217°
2026-04-25 19:27 44.36417 -0.61175 37184 ft 435 kts 217°
2026-04-25 19:27 44.30610 -0.66720 37183 ft 434 kts 217°
2026-04-25 19:28 44.25615 -0.71450 37185 ft 434 kts 216°
2026-04-25 19:28 44.20577 -0.76083 37197 ft 433 kts 216°
2026-04-25 19:29 44.15544 -0.80684 37187 ft 433 kts 216°
2026-04-25 19:29 44.10513 -0.85288 37187 ft 432 kts 216°
2026-04-25 19:30 44.05489 -0.89885 37191 ft 432 kts 216°
2026-04-25 19:30 44.00464 -0.94475 37196 ft 432 kts 215°
2026-04-25 19:31 43.95437 -0.99059 37184 ft 432 kts 215°
2026-04-25 19:31 43.90414 -1.03629 37198 ft 432 kts 215°
2026-04-25 19:32 43.85383 -1.08196 37183 ft 432 kts 215°
2026-04-25 19:32 43.82013 -1.11250 37178 ft 432 kts 215°
2026-04-25 19:33 43.75311 -1.17312 37185 ft 433 kts 215°
2026-04-25 19:33 43.70266 -1.21865 37192 ft 433 kts 215°
2026-04-25 19:34 43.65214 -1.26415 37193 ft 434 kts 215°
2026-04-25 19:34 43.60152 -1.30964 37190 ft 435 kts 215°
2026-04-25 19:35 43.55082 -1.35511 37185 ft 435 kts 215°
2026-04-25 19:35 43.50002 -1.40059 37185 ft 435 kts 215°
2026-04-25 19:36 43.44918 -1.44600 37188 ft 436 kts 215°
2026-04-25 19:36 43.39862 -1.49108 37206 ft 436 kts 215°
2026-04-25 19:37 43.34742 -1.53665 37209 ft 436 kts 215°
2026-04-25 19:37 43.29648 -1.58187 37211 ft 436 kts 215°
2026-04-25 19:38 43.24145 -1.61682 37216 ft 440 kts 198°
2026-04-25 19:38 43.18076 -1.63016 37215 ft 443 kts 188°
2026-04-25 19:39 43.11978 -1.63926 37201 ft 444 kts 188°
2026-04-25 19:39 43.05803 -1.64895 37192 ft 443 kts 189°
2026-04-25 19:40 42.99671 -1.65898 37185 ft 444 kts 189°
2026-04-25 19:40 42.93541 -1.66908 37186 ft 444 kts 189°
2026-04-25 19:41 42.87411 -1.67913 37167 ft 444 kts 189°
2026-04-25 19:41 42.83339 -1.68579 37156 ft 445 kts 189°
2026-04-25 19:42 42.75180 -1.70049 37145 ft 443 kts 196°
2026-04-25 19:42 42.69607 -1.73386 37160 ft 437 kts 214°
2026-04-25 19:43 42.64489 -1.77845 37160 ft 438 kts 214°
2026-04-25 19:43 42.59349 -1.82286 37153 ft 438 kts 214°
2026-04-25 19:44 42.54191 -1.86690 37163 ft 438 kts 214°
2026-04-25 19:44 42.49023 -1.91074 37159 ft 438 kts 214°
2026-04-25 19:45 42.43855 -1.95443 37158 ft 438 kts 214°
2026-04-25 19:45 42.38690 -1.99802 37160 ft 438 kts 213°
2026-04-25 19:46 42.33523 -2.04156 37161 ft 437 kts 213°
2026-04-25 19:46 42.28359 -2.08498 37164 ft 437 kts 213°
2026-04-25 19:47 42.23188 -2.12838 37163 ft 437 kts 213°
2026-04-25 19:47 42.18022 -2.17166 37172 ft 437 kts 213°
2026-04-25 19:48 42.12849 -2.21491 37165 ft 437 kts 213°
2026-04-25 19:48 42.07675 -2.25808 37160 ft 438 kts 213°
2026-04-25 19:49 42.04249 -2.28662 37172 ft 437 kts 213°
2026-04-25 19:49 41.97320 -2.34423 37174 ft 438 kts 213°
2026-04-25 19:50 41.89541 -2.40873 37165 ft 438 kts 212°
2026-04-25 19:51 41.84380 -2.45142 37168 ft 439 kts 212°
2026-04-25 19:51 41.79182 -2.49434 37164 ft 439 kts 212°
2026-04-25 19:52 41.73986 -2.53715 37158 ft 439 kts 212°
2026-04-25 19:52 41.69627 -2.57300 37161 ft 439 kts 212°
2026-04-25 19:53 41.64418 -2.61577 37158 ft 439 kts 212°
2026-04-25 19:53 41.59209 -2.65846 37158 ft 439 kts 212°
2026-04-25 19:54 41.53998 -2.70108 37152 ft 439 kts 212°
2026-04-25 19:54 41.48782 -2.74366 37156 ft 440 kts 212°
2026-04-25 19:55 41.43601 -2.78589 37156 ft 440 kts 212°
2026-04-25 19:55 41.38377 -2.82837 37151 ft 440 kts 212°
2026-04-25 19:56 41.33113 -2.87110 37158 ft 440 kts 212°
2026-04-25 19:56 41.27881 -2.91350 37159 ft 440 kts 212°
2026-04-25 19:57 41.22683 -2.95553 37164 ft 441 kts 211°
2026-04-25 19:57 41.17444 -2.99780 37157 ft 441 kts 211°
2026-04-25 19:58 41.12192 -3.04011 37154 ft 441 kts 211°
2026-04-25 19:58 41.06936 -3.08236 37143 ft 442 kts 211°
2026-04-25 19:59 41.01681 -3.12454 37149 ft 442 kts 211°
2026-04-25 19:59 40.96409 -3.16677 37148 ft 443 kts 211°
2026-04-25 20:00 40.91132 -3.20897 37140 ft 444 kts 211°
2026-04-25 20:00 40.85841 -3.25118 37130 ft 444 kts 211°
2026-04-25 20:01 40.77902 -3.31439 37131 ft 445 kts 211°
2026-04-25 20:01 40.72596 -3.35653 37128 ft 445 kts 211°
2026-04-25 20:02 40.67287 -3.39862 37131 ft 445 kts 211°
2026-04-25 20:02 40.61974 -3.44066 37124 ft 446 kts 211°
2026-04-25 20:03 40.56658 -3.48264 37130 ft 446 kts 211°
2026-04-25 20:03 40.51329 -3.52465 37132 ft 447 kts 211°
2026-04-25 20:04 40.45997 -3.56661 37131 ft 447 kts 211°
2026-04-25 20:04 40.40658 -3.60853 37125 ft 448 kts 211°
2026-04-25 20:05 40.35309 -3.65047 37106 ft 448 kts 211°
2026-04-25 20:05 40.29948 -3.69241 37103 ft 449 kts 211°
2026-04-25 20:06 40.24581 -3.73433 37103 ft 450 kts 211°
2026-04-25 20:06 40.19204 -3.77624 37094 ft 450 kts 211°
2026-04-25 20:07 40.13819 -3.81814 37095 ft 451 kts 211°
2026-04-25 20:07 40.08424 -3.86003 37089 ft 451 kts 211°
2026-04-25 20:08 40.03022 -3.90191 37092 ft 452 kts 211°
2026-04-25 20:08 39.97604 -3.94383 37091 ft 453 kts 211°
2026-04-25 20:09 39.92177 -3.98573 37094 ft 454 kts 211°
2026-04-25 20:09 39.86740 -4.02765 37092 ft 454 kts 211°
2026-04-25 20:10 39.81297 -4.06952 37096 ft 454 kts 211°
2026-04-25 20:10 39.75860 -4.11128 37094 ft 454 kts 211°
2026-04-25 20:11 39.70412 -4.15303 37093 ft 454 kts 211°
2026-04-25 20:11 39.64972 -4.19466 37091 ft 454 kts 211°
2026-04-25 20:12 39.59527 -4.23625 37094 ft 454 kts 211°
2026-04-25 20:12 39.55925 -4.26371 37094 ft 454 kts 211°
2026-04-25 20:13 39.48651 -4.31908 37091 ft 453 kts 211°
2026-04-25 20:13 39.43218 -4.36034 37091 ft 453 kts 211°
2026-04-25 20:14 39.37823 -4.40124 37094 ft 453 kts 211°
2026-04-25 20:14 39.32388 -4.44238 37088 ft 452 kts 210°
2026-04-25 20:15 39.26955 -4.48342 37086 ft 452 kts 210°
2026-04-25 20:15 39.21525 -4.52437 37086 ft 452 kts 211°
2026-04-25 20:16 39.16092 -4.56526 37088 ft 452 kts 211°
2026-04-25 20:16 39.10659 -4.60608 37076 ft 452 kts 210°
2026-04-25 20:17 39.05220 -4.64690 37084 ft 452 kts 210°
2026-04-25 20:17 38.99784 -4.68767 37078 ft 453 kts 211°
2026-04-25 20:18 38.94476 -4.73145 37080 ft 453 kts 214°
2026-04-25 20:18 38.89236 -4.77658 37080 ft 454 kts 214°
2026-04-25 20:19 38.83977 -4.82147 37076 ft 454 kts 214°
2026-04-25 20:19 38.78694 -4.86611 37075 ft 455 kts 214°
2026-04-25 20:20 38.73400 -4.91064 37073 ft 455 kts 214°
2026-04-25 20:20 38.68102 -4.95514 37064 ft 455 kts 214°
2026-04-25 20:21 38.62804 -4.99958 37072 ft 456 kts 214°
2026-04-25 20:21 38.57497 -5.04402 37075 ft 456 kts 214°
2026-04-25 20:22 38.53950 -5.07368 37072 ft 456 kts 214°
2026-04-25 20:22 38.46659 -5.12801 37080 ft 457 kts 207°
2026-04-25 20:23 38.40915 -5.16278 37073 ft 457 kts 206°
2026-04-25 20:23 38.35170 -5.19740 37075 ft 457 kts 206°
2026-04-25 20:24 38.29441 -5.23255 37073 ft 457 kts 206°
2026-04-25 20:24 38.23728 -5.26787 37075 ft 457 kts 206°
2026-04-25 20:25 38.18017 -5.30317 37072 ft 457 kts 206°
2026-04-25 20:25 38.12300 -5.33843 37059 ft 456 kts 206°
2026-04-25 20:26 38.06589 -5.37357 37067 ft 456 kts 207°
2026-04-25 20:26 38.00875 -5.40866 37069 ft 456 kts 207°
2026-04-25 20:27 37.95161 -5.44370 37064 ft 456 kts 206°
2026-04-25 20:27 37.89445 -5.47869 37067 ft 457 kts 206°
2026-04-25 20:28 37.83722 -5.51366 37059 ft 457 kts 206°
2026-04-25 20:28 37.77997 -5.54858 37059 ft 457 kts 207°
2026-04-25 20:29 37.72278 -5.58340 37061 ft 457 kts 207°
2026-04-25 20:29 37.66536 -5.61831 37055 ft 457 kts 207°
2026-04-25 20:30 37.60797 -5.65314 37052 ft 458 kts 207°
2026-04-25 20:30 37.55061 -5.68789 37048 ft 458 kts 207°
2026-04-25 20:31 37.49315 -5.72266 37038 ft 458 kts 207°
2026-04-25 20:31 37.43538 -5.75640 37034 ft 453 kts 201°
2026-04-25 20:32 37.40562 -5.76723 37033 ft 439 kts 192°
2026-04-25 20:32 37.37629 -5.77276 37042 ft 425 kts 189°
2026-04-25 20:32 37.34709 -5.77772 37027 ft 411 kts 189°
2026-04-25 20:32 37.31952 -5.78237 37027 ft 400 kts 189°
2026-04-25 20:33 37.26354 -5.79212 37070 ft 411 kts 190°
2026-04-25 20:33 37.22551 -5.79895 37064 ft 422 kts 190°
2026-04-25 20:34 37.14762 -5.81305 37043 ft 425 kts 190°
2026-04-25 20:34 37.08986 -5.82350 37028 ft 415 kts 190°
2026-04-25 20:35 37.03277 -5.83384 37053 ft 415 kts 190°
2026-04-25 20:35 36.97555 -5.84420 37061 ft 416 kts 190°
2026-04-25 20:36 36.91818 -5.85456 37051 ft 418 kts 190°
2026-04-25 20:36 36.86058 -5.86494 37068 ft 419 kts 190°
2026-04-25 20:37 36.81300 -5.87349 36602 ft 413 kts 190°
2026-04-25 20:37 36.78418 -5.87869 35615 ft 426 kts 190°
2026-04-25 20:37 36.75416 -5.88412 34367 ft 447 kts 189°
2026-04-25 20:38 36.72310 -5.88971 33549 ft 453 kts 189°
2026-04-25 20:38 36.69191 -5.89530 32758 ft 455 kts 189°
2026-04-25 20:38 36.66038 -5.90093 31856 ft 460 kts 189°
2026-04-25 20:38 36.62870 -5.90660 31204 ft 459 kts 188°
2026-04-25 20:39 36.59728 -5.91220 30738 ft 453 kts 189°
2026-04-25 20:39 36.56625 -5.91774 30264 ft 448 kts 188°
2026-04-25 20:39 36.53546 -5.92324 29323 ft 447 kts 188°
2026-04-25 20:39 36.51449 -5.92699 28389 ft 451 kts 188°
2026-04-25 20:40 36.47312 -5.93437 26816 ft 454 kts 188°
2026-04-25 20:40 36.44198 -5.93992 25943 ft 449 kts 188°
2026-04-25 20:40 36.41134 -5.94537 25138 ft 442 kts 188°
2026-04-25 20:40 36.38112 -5.95075 24343 ft 436 kts 188°
2026-04-25 20:41 36.35126 -5.95607 23541 ft 431 kts 188°
2026-04-25 20:41 36.32173 -5.96132 22561 ft 428 kts 188°
2026-04-25 20:41 36.29236 -5.96653 21635 ft 424 kts 187°
2026-04-25 20:41 36.26338 -5.97168 20798 ft 418 kts 187°
2026-04-25 20:42 36.23469 -5.97600 19995 ft 412 kts 182°
2026-04-25 20:42 36.20623 -5.97584 19182 ft 406 kts 177°
2026-04-25 20:42 36.17812 -5.97402 18318 ft 404 kts 175°
2026-04-25 20:42 36.15035 -5.97201 17617 ft 394 kts 175°
2026-04-25 20:43 36.12315 -5.97013 16786 ft 389 kts 175°
2026-04-25 20:43 36.09627 -5.96843 16020 ft 384 kts 176°
2026-04-25 20:43 36.06972 -5.96686 15250 ft 379 kts 176°
2026-04-25 20:43 36.04352 -5.96540 14515 ft 375 kts 176°
2026-04-25 20:44 36.01765 -5.96398 13815 ft 370 kts 176°
2026-04-25 20:44 35.99217 -5.96260 13050 ft 364 kts 176°
2026-04-25 20:44 35.96707 -5.96124 12330 ft 358 kts 176°
2026-04-25 20:44 35.94226 -5.95991 11536 ft 356 kts 175°
2026-04-25 20:45 35.91763 -5.95859 10843 ft 351 kts 175°
2026-04-25 20:45 35.89326 -5.95726 10498 ft 353 kts 175°
2026-04-25 20:45 35.86863 -5.95592 10383 ft 355 kts 176°
2026-04-25 20:45 35.84426 -5.95893 10180 ft 349 kts 198°
2026-04-25 20:46 35.82380 -5.97242 10187 ft 321 kts 216°
2026-04-25 20:46 35.80873 -5.99122 10188 ft 297 kts 230°
2026-04-25 20:46 35.79644 -6.01086 10091 ft 282 kts 232°
2026-04-25 20:46 35.78481 -6.02982 9736 ft 274 kts 232°
2026-04-25 20:47 35.77257 -6.04736 9116 ft 269 kts 216°
2026-04-25 20:47 35.75539 -6.05536 8403 ft 264 kts 185°
2026-04-25 20:47 35.73715 -6.05815 7764 ft 263 kts 182°
2026-04-25 20:47 35.71900 -6.06100 7143 ft 262 kts 184°
2026-04-25 20:48 35.70072 -6.06397 6472 ft 268 kts 184°
2026-04-25 20:48 35.68350 -6.07101 6126 ft 267 kts 211°
2026-04-25 20:48 35.67149 -6.08876 5643 ft 269 kts 244°
2026-04-25 20:48 35.66532 -6.11013 5237 ft 265 kts 255°
2026-04-25 20:49 35.66040 -6.13190 4723 ft 269 kts 256°
2026-04-25 20:49 35.65589 -6.15440 4229 ft 268 kts 266°
2026-04-25 20:49 35.65980 -6.17570 4048 ft 256 kts 308°
2026-04-25 20:49 35.67311 -6.18864 4021 ft 245 kts 347°
2026-04-25 20:50 35.68961 -6.19356 4000 ft 238 kts 355°
2026-04-25 20:50 35.70589 -6.19471 4001 ft 231 kts
2026-04-25 20:50 35.72199 -6.19370 4001 ft 233 kts
2026-04-25 20:50 35.73800 -6.19293 3999 ft 232 kts
2026-04-25 20:51 35.75379 -6.19056 3986 ft 225 kts 24°
2026-04-25 20:51 35.76592 -6.17958 4010 ft 215 kts 56°
2026-04-25 20:51 35.77052 -6.16306 4004 ft 206 kts 87°
2026-04-25 20:51 35.76652 -6.14667 3997 ft 199 kts 115°
2026-04-25 20:52 35.75900 -6.13278 3820 ft 190 kts 119°
2026-04-25 20:52 35.75512 -6.12347 3717 ft 176 kts 101°
2026-04-25 20:52 35.75242 -6.10426 3387 ft 167 kts 97°
2026-04-25 20:52 35.75030 -6.09036 3146 ft 164 kts 98°
2026-04-25 20:53 35.74837 -6.07656 3048 ft 164 kts 98°
2026-04-25 20:53 35.74661 -6.06266 3014 ft 163 kts 98°
2026-04-25 20:53 35.74492 -6.04937 3042 ft 150 kts 97°
2026-04-25 20:53 35.74336 -6.03705 2720 ft 141 kts 98°
2026-04-25 20:54 35.74189 -6.02548 2361 ft 134 kts 97°
2026-04-25 20:54 35.74033 -6.01444 1961 ft 129 kts 98°
2026-04-25 20:54 35.73904 -6.00452 1771 ft 106 kts 95°
2026-04-25 20:54 35.73838 -5.99558 1413 ft 107 kts 92°
2026-04-25 20:55 35.73776 -5.98634 1053 ft 110 kts 94°
2026-04-25 20:55 35.73674 -5.97675 798 ft 118 kts 94°
2026-04-25 20:55 35.73578 -5.96652 587 ft 123 kts 92°
2026-04-25 20:55 35.73488 -5.95621 391 ft 120 kts 89°
2026-04-25 20:56 35.73392 -5.94608 203 ft 119 kts 91°
2026-04-25 20:56 35.73306 -5.93633 70 ft 105 kts 91°
2026-04-25 20:56 35.73241 -5.92871 59 ft 70 kts 97°
2026-04-25 20:56 35.73197 -5.92455 60 ft 36 kts 97°
2026-04-25 20:57 35.73170 -5.92167 59 ft 30 kts 99°
2026-04-25 20:57 35.73144 -5.91919 54 ft 28 kts 95°
2026-04-25 20:57 35.73083 -5.91766 55 ft 4 kts 143°
2026-04-25 20:57 35.73060 -5.91745 59 ft 4 kts 142°
2026-04-25 20:58 35.73034 -5.91733 59 ft 4 kts 172°
2026-04-25 20:58 35.73001 -5.91730 59 ft 6 kts 176°
2026-04-25 20:58 35.72948 -5.91726 59 ft 9 kts 176°
2026-04-25 20:58 35.72884 -5.91720 59 ft 9 kts 175°
2026-04-25 20:59 35.72822 -5.91713 59 ft 9 kts 174°
2026-04-25 20:59 35.72761 -5.91707 59 ft 9 kts 177°
2026-04-25 20:59 35.72702 -5.91703 59 ft 8 kts 176°
2026-04-25 20:59 35.72642 -5.91697 59 ft 10 kts 175°
2026-04-25 21:00 35.72572 -5.91690 56 ft 10 kts 175°
2026-04-25 21:00 35.72549 -5.91687 59 ft 10 kts 176°
2026-04-25 21:00 35.72427 -5.91499 57 ft 15 kts 86°
2026-04-25 21:01 35.72451 -5.91445 56 ft 4 kts 24°
2026-04-25 21:01 35.72475 -5.91443 54 ft 4 kts 353°
2026-04-25 21:01 35.72512 -5.91447 54 ft 5 kts 356°
2026-04-25 21:01 35.72521 -5.91448 52 ft 0 kts 355°